When you browse on this site, cookies collect data to enhance your experience and personalize the content and advertising you see.
Visit our Privacy Policy to learn more. By continuing to use the site, you agree to this use of cookies and data.
  • In Österreich
  • Länderverzeichnis
  • Für 7 Tage
  • Wassertemperatur
  • Satellitenkarten
  • Wetterkarte
  • News
  • Widgets
  • user-avatar
    Anmelden

    Stündliche Wetter Chymbarivka

    Heute, 26 Mai, Sonntag

    Zeit Temperatur Niederschläge Wind Luftdruck Luftfeuchtigkeit
    00:00 +13°C° 0 mm 3 m/S 732 mmHg 95%
    01:00 +13°C° 0 mm 3 m/S 732 mmHg 95%
    02:00 +12°C° 0 mm 3 m/S 732 mmHg 95%
    03:00 +12°C° 0 mm 3 m/S 732 mmHg 95%
    04:00 +12°C° 0 mm 3 m/S 733 mmHg 95%
    05:00 +11°C° 0 mm 3 m/S 733 mmHg 95%
    06:00 +13°C° 0 mm 3 m/S 733 mmHg 91%
    07:00 +16°C° 0 mm 3 m/S 733 mmHg 87%
    08:00 +17°C° 0 mm 3 m/S 734 mmHg 82%
    09:00 +18°C° 0.1 mm 3 m/S 734 mmHg 77%
    10:00 +20°C° 0.1 mm 4 m/S 734 mmHg 72%
    11:00 +21°C° 0.1 mm 4 m/S 734 mmHg 66%
    12:00 +21°C° 0 mm 4 m/S 734 mmHg 64%
    13:00 +22°C° 0 mm 3 m/S 734 mmHg 61%
    14:00 +22°C° 0 mm 3 m/S 734 mmHg 58%
    15:00 +22°C° 0 mm 3 m/S 734 mmHg 59%
    16:00 +23°C° 0 mm 2 m/S 734 mmHg 59%
    17:00 +23°C° 0 mm 2 m/S 734 mmHg 60%
    18:00 +22°C° 0 mm 1 m/S 734 mmHg 64%
    19:00 +21°C° 0 mm 1 m/S 734 mmHg 67%
    20:00 +19°C° 0 mm 1 m/S 734 mmHg 71%
    21:00 +18°C° 0 mm 1 m/S 734 mmHg 73%
    22:00 +18°C° 0 mm 1 m/S 734 mmHg 75%
    23:00 +16°C° 0 mm 1 m/S 734 mmHg 76%

    Morgen, 27 Mai, Montag

    Zeit Temperatur Niederschläge Wind Luftdruck Luftfeuchtigkeit
    00:00 +16°C° 0 mm 1 m/S 734 mmHg 77%
    01:00 +15°C° 0 mm 1 m/S 734 mmHg 78%
    02:00 +15°C° 0 mm 1 m/S 734 mmHg 80%
    03:00 +15°C° 0 mm 1 m/S 734 mmHg 82%
    04:00 +15°C° 0 mm 1 m/S 734 mmHg 84%
    05:00 +14°C° 0 mm 1 m/S 734 mmHg 85%
    06:00 +16°C° 0 mm 2 m/S 734 mmHg 83%
    07:00 +18°C° 0 mm 2 m/S 735 mmHg 80%
    08:00 +20°C° 0 mm 2 m/S 735 mmHg 77%
    09:00 +21°C° 0 mm 2 m/S 735 mmHg 73%
    10:00 +23°C° 0 mm 2 m/S 735 mmHg 69%
    11:00 +25°C° 0 mm 2 m/S 735 mmHg 65%
    12:00 +25°C° 0 mm 3 m/S 734 mmHg 62%
    13:00 +26°C° 0 mm 3 m/S 734 mmHg 59%
    14:00 +27°C° 0 mm 4 m/S 734 mmHg 56%
    15:00 +27°C° 0 mm 4 m/S 734 mmHg 59%
    16:00 +27°C° 0 mm 4 m/S 733 mmHg 62%
    17:00 +27°C° 0 mm 3 m/S 733 mmHg 64%
    18:00 +25°C° 0 mm 3 m/S 733 mmHg 69%
    19:00 +22°C° 0 mm 3 m/S 733 mmHg 74%
    20:00 +21°C° 0 mm 3 m/S 733 mmHg 78%
    21:00 +20°C° 0 mm 4 m/S 733 mmHg 77%
    22:00 +20°C° 0 mm 4 m/S 733 mmHg 76%
    23:00 +20°C° 0 mm 4 m/S 733 mmHg 74%

    übermorgen, 28 Mai, Dienstag

    Zeit Temperatur Niederschläge Wind Luftdruck Luftfeuchtigkeit
    00:00 +19°C° 0 mm 5 m/S 733 mmHg 75%
    01:00 +19°C° 0 mm 5 m/S 733 mmHg 76%
    02:00 +17°C° 0 mm 5 m/S 733 mmHg 77%
    03:00 +17°C° 0 mm 5 m/S 733 mmHg 79%
    04:00 +16°C° 0 mm 5 m/S 732 mmHg 80%
    05:00 +16°C° 0 mm 5 m/S 732 mmHg 82%
    06:00 +16°C° 0 mm 5 m/S 732 mmHg 79%
    07:00 +17°C° 0 mm 6 m/S 732 mmHg 77%
    08:00 +18°C° 0 mm 7 m/S 732 mmHg 74%
    09:00 +20°C° 0 mm 7 m/S 732 mmHg 72%
    10:00 +20°C° 0 mm 7 m/S 732 mmHg 70%
    11:00 +21°C° 0 mm 8 m/S 731 mmHg 67%
    12:00 +22°C° 0 mm 8 m/S 731 mmHg 65%
    13:00 +23°C° 0 mm 9 m/S 731 mmHg 63%
    14:00 +24°C° 0 mm 9 m/S 730 mmHg 61%
    15:00 +24°C° 0 mm 9 m/S 730 mmHg 62%
    16:00 +24°C° 0 mm 9 m/S 730 mmHg 63%
    17:00 +24°C° 0 mm 8 m/S 729 mmHg 65%
    18:00 +23°C° 0 mm 8 m/S 729 mmHg 66%
    19:00 +21°C° 0 mm 8 m/S 729 mmHg 67%
    20:00 +20°C° 0 mm 8 m/S 729 mmHg 69%
    21:00 +18°C° 0 mm 8 m/S 729 mmHg 71%
    22:00 +18°C° 0 mm 8 m/S 729 mmHg 73%
    23:00 +17°C° 0 mm 7 m/S 729 mmHg 75%

    29 Mai, Mittwoch

    Zeit Temperatur Niederschläge Wind Luftdruck Luftfeuchtigkeit
    00:00 +17°C° 0 mm 7 m/S 729 mmHg 78%
    01:00 +16°C° 0 mm 6 m/S 729 mmHg 81%
    02:00 +15°C° 0 mm 6 m/S 729 mmHg 84%
    03:00 +15°C° 0 mm 6 m/S 729 mmHg 87%
    04:00 +14°C° 0 mm 5 m/S 729 mmHg 90%
    05:00 +14°C° 0 mm 5 m/S 729 mmHg 93%
    06:00 +15°C° 0 mm 5 m/S 729 mmHg 90%
    07:00 +16°C° 0 mm 5 m/S 729 mmHg 87%
    08:00 +19°C° 0 mm 6 m/S 729 mmHg 84%
    09:00 +20°C° 0 mm 6 m/S 729 mmHg 81%
    10:00 +22°C° 0 mm 6 m/S 730 mmHg 77%
    11:00 +23°C° 0 mm 6 m/S 730 mmHg 73%
    12:00 +24°C° 0 mm 6 m/S 730 mmHg 70%
    13:00 +26°C° 0 mm 5 m/S 730 mmHg 66%
    14:00 +26°C° 0 mm 5 m/S 729 mmHg 63%
    15:00 +26°C° 0.2 mm 5 m/S 729 mmHg 65%
    16:00 +26°C° 0.2 mm 4 m/S 729 mmHg 67%
    17:00 +26°C° 0.2 mm 3 m/S 729 mmHg 69%
    18:00 +25°C° 0.7 mm 2 m/S 729 mmHg 73%
    19:00 +23°C° 0.7 mm 1 m/S 729 mmHg 77%
    20:00 +22°C° 0.7 mm 1 m/S 729 mmHg 81%
    21:00 +21°C° 0.7 mm 1 m/S 730 mmHg 83%
    22:00 +20°C° 0.7 mm 1 m/S 730 mmHg 85%
    23:00 +20°C° 0.7 mm 1 m/S 730 mmHg 87%

    30 Mai, Donnerstag

    Zeit Temperatur Niederschläge Wind Luftdruck Luftfeuchtigkeit
    00:00 +19°C° 0.3 mm 1 m/S 730 mmHg 89%
    01:00 +19°C° 0.3 mm 1 m/S 730 mmHg 90%
    02:00 +18°C° 0.3 mm 1 m/S 731 mmHg 91%
    03:00 +18°C° 0 mm 1 m/S 731 mmHg 92%
    04:00 +17°C° 0 mm 2 m/S 731 mmHg 92%
    05:00 +16°C° 0 mm 2 m/S 731 mmHg 93%
    06:00 +17°C° 0 mm 3 m/S 732 mmHg 89%
    07:00 +19°C° 0 mm 4 m/S 732 mmHg 85%
    08:00 +20°C° 0 mm 5 m/S 733 mmHg 81%
    09:00 +21°C° 0 mm 5 m/S 733 mmHg 77%
    10:00 +22°C° 0 mm 6 m/S 733 mmHg 73%
    11:00 +23°C° 0 mm 6 m/S 734 mmHg 70%
    12:00 +22°C° 0.2 mm 6 m/S 734 mmHg 70%
    13:00 +22°C° 0.2 mm 7 m/S 734 mmHg 70%
    14:00 +22°C° 0.2 mm 7 m/S 735 mmHg 70%
    15:00 +21°C° 0 mm 7 m/S 735 mmHg 72%
    16:00 +21°C° 0 mm 7 m/S 735 mmHg 74%
    17:00 +20°C° 0 mm 6 m/S 735 mmHg 76%
    18:00 +17°C° 0 mm 5 m/S 736 mmHg 80%
    19:00 +17°C° 0 mm 4 m/S 736 mmHg 83%
    20:00 +16°C° 0 mm 3 m/S 737 mmHg 87%
    21:00 +16°C° 0 mm 3 m/S 737 mmHg 88%
    22:00 +14°C° 0 mm 4 m/S 738 mmHg 89%
    23:00 +14°C° 0 mm 4 m/S 738 mmHg 90%

    31 Mai, Freitag

    Zeit Temperatur Niederschläge Wind Luftdruck Luftfeuchtigkeit
    00:00 +13°C° 0 mm 4 m/S 738 mmHg 91%
    01:00 +12°C° 0 mm 4 m/S 738 mmHg 93%
    02:00 +12°C° 0 mm 4 m/S 738 mmHg 94%
    03:00 +11°C° 0 mm 4 m/S 738 mmHg 95%
    04:00 +11°C° 0 mm 3 m/S 738 mmHg 95%
    05:00 +11°C° 0 mm 3 m/S 738 mmHg 95%
    06:00 +12°C° 0 mm 3 m/S 739 mmHg 91%
    07:00 +13°C° 0 mm 3 m/S 739 mmHg 86%
    08:00 +16°C° 0 mm 3 m/S 739 mmHg 82%
    09:00 +17°C° 0 mm 4 m/S 739 mmHg 77%
    10:00 +18°C° 0 mm 4 m/S 739 mmHg 72%
    11:00 +20°C° 0 mm 4 m/S 738 mmHg 68%
    12:00 +20°C° 0 mm 4 m/S 738 mmHg 67%
    13:00 +21°C° 0 mm 4 m/S 738 mmHg 66%
    14:00 +21°C° 0 mm 4 m/S 738 mmHg 64%
    15:00 +21°C° 0 mm 4 m/S 738 mmHg 67%
    16:00 +20°C° 0 mm 3 m/S 738 mmHg 69%
    17:00 +20°C° 0 mm 3 m/S 738 mmHg 71%
    18:00 +19°C° 0 mm 3 m/S 738 mmHg 74%
    19:00 +18°C° 0 mm 3 m/S 738 mmHg 78%
    20:00 +17°C° 0 mm 2 m/S 738 mmHg 82%
    21:00 +16°C° 0 mm 3 m/S 738 mmHg 81%
    22:00 +14°C° 0 mm 3 m/S 738 mmHg 80%
    23:00 +14°C° 0 mm 3 m/S 738 mmHg 80%
    Mehr zeigen